TimeCDT,TemperatureF,Dew PointF,Humidity,Sea Level PressureIn,VisibilityMPH,Wind Direction,Wind SpeedMPH,Gust SpeedMPH,PrecipitationIn,Events,Conditions,WindDirDegrees,DateUTC
12:53 AM,44.1,30.0,58,30.12,10.0,SSW,10.4,-,N/A,,Clear,200,2012-10-11 05:53:00
1:53 AM,46.0,30.9,56,30.11,10.0,SSW,12.7,-,N/A,,Clear,210,2012-10-11 06:53:00
2:53 AM,44.1,30.9,60,30.11,10.0,SSW,9.2,-,N/A,,Clear,200,2012-10-11 07:53:00
3:53 AM,43.0,30.9,62,30.10,10.0,SSW,9.2,-,N/A,,Clear,200,2012-10-11 08:53:00
4:53 AM,44.1,32.0,63,30.09,10.0,South,9.2,-,N/A,,Clear,190,2012-10-11 09:53:00
5:53 AM,39.9,30.9,70,30.09,10.0,South,10.4,-,N/A,,Clear,190,2012-10-11 10:53:00
6:53 AM,39.0,30.9,73,30.10,10.0,South,9.2,-,N/A,,Clear,190,2012-10-11 11:53:00
7:53 AM,41.0,32.0,70,30.10,10.0,South,9.2,-,N/A,,Clear,180,2012-10-11 12:53:00
8:53 AM,45.0,33.1,63,30.12,10.0,South,6.9,-,N/A,,Clear,190,2012-10-11 13:53:00
9:53 AM,54.0,36.0,51,30.12,10.0,South,11.5,-,N/A,,Clear,190,2012-10-11 14:53:00
10:53 AM,60.1,37.0,42,30.10,10.0,SSW,9.2,-,N/A,,Clear,200,2012-10-11 15:53:00
11:53 AM,64.9,39.0,39,30.10,10.0,SW,9.2,-,N/A,,Clear,230,2012-10-11 16:53:00
12:53 PM,69.1,45.0,42,30.07,10.0,West,12.7,-,N/A,,Clear,260,2012-10-11 17:53:00
1:53 PM,66.9,45.0,45,30.07,10.0,West,4.6,-,N/A,,Overcast,280,2012-10-11 18:53:00
3:53 PM,70.0,46.9,44,30.05,10.0,NW,4.6,-,N/A,,Mostly Cloudy,320,2012-10-11 20:53:00
5:53 PM,63.0,37.0,38,30.10,10.0,North,13.8,-,N/A,,Mostly Cloudy,10,2012-10-11 22:53:00
6:53 PM,59.0,34.0,39,30.15,10.0,NNE,15.0,-,N/A,,Clear,20,2012-10-11 23:53:00
8:53 PM,51.1,32.0,48,30.24,10.0,NE,17.3,26.5,N/A,,Overcast,40,2012-10-12 01:53:00
9:53 PM,50.0,30.0,46,30.27,10.0,NNE,13.8,25.3,N/A,,Overcast,30,2012-10-12 02:53:00
10:53 PM,48.0,27.0,44,30.29,10.0,NE,21.9,28.8,N/A,,Overcast,40,2012-10-12 03:53:00
11:53 PM,48.0,28.0,46,30.31,10.0,NE,18.4,24.2,N/A,,Overcast,40,2012-10-12 04:53:00